Tracking 23758 objects as of 27-Oct-2021
HD Live streaming from Space Station
objects crossing your sky now

IRIDIUM 33 DEB

Track IRIDIUM 33 DEB now!
10-day predictions


NORAD ID: 35052
Int'l Code: 1997-051NY
Perigee: 771.6 km
Apogee: 787.7 km
Inclination: 86.3 °
Period: 100.3 minutes
Semi major axis: 7150 km
RCS: 0.0011 m2 (small)
Launch date: September 14, 1997
Source: United States (US)
Launch site: TYURATAM MISSILE AND SPACE COMPLEX (TTMTR)

Note: This is SATELLITE DEBRIS
aabbcc
Your satellite tracking list
Your tracking list is empty




NASA's NSSDC Master Catalog

Two Line Element Set (TLE):
1 35052U 97051NY  21299.32142456  .00000191  00000-0  59095-4 0  9990
2 35052  86.3270 305.0884 0011290 350.3073   9.7904 14.35770705656156
Source of the keplerian elements: AFSPC